Weather History for Holdrege, NE

Change the Weather History Date:

Sunday, May 5, 2013

  Actual Average Record
Temperature  
Mean Temperature 50 °F -  
Max Temperature 64 °F 71 °F 95 °F (2004)
Min Temperature 37 °F 45 °F 30 °F (1950)
Degree Days  
Heating Degree Days 14    
Moisture  
Dew Point 35 °F    
Average Humidity 57    
Maximum Humidity 77    
Minimum Humidity 33    
Precipitation  
Precipitation 0.00 in - - ()
Sea Level Pressure  
Sea Level Pressure 30.16 in    
Wind  
Wind Speed 10 mph (NNE)    
Max Wind Speed 17 mph    
Max Gust Speed 22 mph    
Visibility 10 miles    
Events      
Averages and records for this station are not official NWS values.
T = Trace of Precipitation, MM = Missing Value Source: NWS Daily Summary

Daily Weather History Graph

Daily Weather History Graph

Search for Another Location

Airport:

Trip Planner

Search our weather history database for the weather conditions in past years. The results will help you decide how hot, cold, wet, or windy it might be!

Date:

Astronomy

May. 05, 2013 Rise Set
Actual Time 6:31 AM CDT 8:37 PM CDT
Civil Twilight 6:01 AM CDT 9:07 PM CDT
Nautical Twilight 5:24 AM CDT 9:44 PM CDT
Astronomical Twilight 4:44 AM CDT 10:24 PM CDT
Moon 4:03 AM CDT (5/5) 4:37 PM CDT (5/5)
Length of Visible Light 15h 06m
Length of Day
14h 06m
Waning Crescent, 18% of the Moon is Illuminated
May 5
Waning Crescent
May 9
New
May 17
First Quarter
May 24
Full
May 31
Last Quarter

Hourly Weather History & Observations

Time (CDT) Temp. Windchill Dew Point Humidity Pressure Visibility Wind Dir Wind Speed Gust Speed Precip Events Conditions
12:15 AM 44.2 °F 37.6 °F 33.4 °F 66% 30.18 in 10.0 mi NNE 13.8 mph - N/A   Overcast
12:35 AM 44.2 °F 38.4 °F 33.8 °F 67% 30.18 in 10.0 mi NNE 11.5 mph - N/A   Overcast
12:55 AM 44.2 °F 38.8 °F 34.2 °F 68% 30.19 in 10.0 mi NNE 10.4 mph - N/A   Overcast
1:15 AM 44.2 °F 38.8 °F 34.2 °F 68% 30.19 in 10.0 mi North 10.4 mph - N/A   Overcast
1:35 AM 44.2 °F 39.7 °F 34.0 °F 67% 30.19 in 10.0 mi North 8.1 mph - N/A   Overcast
1:55 AM 44.2 °F 39.2 °F 34.3 °F 68% 30.19 in 10.0 mi NNE 9.2 mph - N/A   Overcast
2:15 AM 44.2 °F 38.8 °F 33.6 °F 66% 30.18 in 10.0 mi North 10.4 mph - N/A   Unknown
2:35 AM 44.2 °F 38.0 °F 33.3 °F 65% 30.17 in 10.0 mi North 12.7 mph - N/A   Overcast
2:55 AM 44.1 °F 37.7 °F 33.3 °F 66% 30.17 in 10.0 mi North 12.7 mph - N/A   Overcast
3:15 AM 44.1 °F 39.5 °F 33.3 °F 66% 30.17 in 10.0 mi North 8.1 mph - N/A   Overcast
3:35 AM 44.1 °F 39.0 °F 33.3 °F 66% 30.17 in 10.0 mi North 9.2 mph - N/A   Overcast
3:55 AM 44.1 °F 40.8 °F 33.6 °F 67% 30.18 in 10.0 mi North 5.8 mph - N/A   Overcast
4:15 AM 43.7 °F 38.6 °F 33.4 °F 67% 30.18 in 10.0 mi North 9.2 mph - N/A   Overcast
4:35 AM 43.3 °F 37.7 °F 33.3 °F 68% 30.18 in 10.0 mi NNW 10.4 mph - N/A   Overcast
4:55 AM 41.9 °F 37.5 °F 32.9 °F 70% 30.18 in 10.0 mi NNW 6.9 mph - N/A   Overcast
5:15 AM 40.5 °F 34.6 °F 32.4 °F 73% 30.19 in 10.0 mi NNW 9.2 mph - N/A   Overcast
5:55 AM 38.7 °F 32.4 °F 31.6 °F 76% 30.19 in 10.0 mi NNW 9.2 mph - N/A   Overcast
6:15 AM 38.8 °F 32.6 °F 31.8 °F 76% 30.19 in 10.0 mi NNW 9.2 mph - N/A   Overcast
6:35 AM 38.5 °F 32.1 °F 31.5 °F 76% 30.19 in 10.0 mi NNW 9.2 mph - N/A   Overcast
6:55 AM 38.3 °F 31.4 °F 31.5 °F 76% 30.19 in 10.0 mi NNW 10.4 mph - N/A   Overcast
7:15 AM 38.3 °F 31.4 °F 31.5 °F 76% 30.20 in 10.0 mi NNW 10.4 mph - N/A   Overcast
7:35 AM 37.9 °F 32.1 °F 31.5 °F 77% 30.20 in 10.0 mi NNW 8.1 mph - N/A   Scattered Clouds
7:55 AM 40.1 °F 33.6 °F 32.0 °F 73% 30.20 in 10.0 mi NNW 10.4 mph 16.1 mph N/A   Clear
8:15 AM 41.9 °F 34.6 °F 32.7 °F 70% 30.20 in 10.0 mi North 13.8 mph 19.6 mph N/A   Clear
8:35 AM 44.1 °F 37.1 °F 33.6 °F 67% 30.20 in 10.0 mi North 15.0 mph - N/A   Clear
8:55 AM 45.7 °F 38.6 °F 34.3 °F 65% 30.20 in 10.0 mi North 17.3 mph - N/A   Clear
9:15 AM 46.8 °F - 34.3 °F 62% 30.21 in 10.0 mi North 13.8 mph 21.9 mph N/A   Clear
9:35 AM 48.0 °F - 35.1 °F 61% 30.21 in 10.0 mi North 15.0 mph 19.6 mph N/A   Clear
9:55 AM 48.4 °F - 35.6 °F 61% 30.21 in 10.0 mi North 15.0 mph 20.7 mph N/A   Clear
10:15 AM 49.8 °F - 36.5 °F 60% 30.20 in 10.0 mi North 13.8 mph - N/A   Clear
10:35 AM 50.5 °F - 36.7 °F 59% 30.21 in 10.0 mi North 13.8 mph 18.4 mph N/A   Scattered Clouds
10:55 AM 51.3 °F - 37.4 °F 59% 30.21 in 10.0 mi North 11.5 mph - N/A   Overcast
11:15 AM 52.5 °F - 37.2 °F 56% 30.21 in 10.0 mi North 8.1 mph 16.1 mph N/A   Overcast
11:35 AM 54.1 °F - 38.3 °F 55% 30.21 in 10.0 mi North 12.7 mph 18.4 mph N/A   Mostly Cloudy
11:55 AM 54.7 °F - 38.3 °F 54% 30.21 in 10.0 mi NNE 12.7 mph 19.6 mph N/A   Scattered Clouds
12:15 PM 55.0 °F - 37.9 °F 53% 30.20 in 10.0 mi North 10.4 mph 17.3 mph N/A   Scattered Clouds
12:35 PM 55.6 °F - 37.9 °F 52% 30.20 in 7.0 mi North 6.9 mph 20.7 mph N/A   Scattered Clouds
1:15 PM 57.4 °F - 38.7 °F 50% 30.19 in 10.0 mi North 8.1 mph 17.3 mph N/A   Mostly Cloudy
1:35 PM 59.0 °F - 39.2 °F 48% 30.17 in 10.0 mi North 9.2 mph 16.1 mph N/A   Scattered Clouds
1:55 PM 59.0 °F - 38.5 °F 47% 30.16 in 10.0 mi North 12.7 mph - N/A   Scattered Clouds
2:15 PM 59.2 °F - 38.3 °F 46% 30.16 in 10.0 mi North 10.4 mph 17.3 mph N/A   Scattered Clouds
2:35 PM 60.4 °F - 38.3 °F 44% 30.16 in 10.0 mi North 11.5 mph 16.1 mph N/A   Clear
2:55 PM 60.8 °F - 38.3 °F 43% 30.15 in 10.0 mi NE 9.2 mph - N/A   Clear
3:15 PM 61.3 °F - 37.9 °F 42% 30.14 in 10.0 mi North 5.8 mph - N/A   Clear
3:35 PM 62.4 °F - 37.8 °F 40% 30.14 in 10.0 mi NNW 5.8 mph 10.4 mph N/A   Clear
3:55 PM 62.6 °F - 36.9 °F 38% 30.13 in 10.0 mi NNW 5.8 mph - N/A   Clear
4:15 PM 63.1 °F - 37.4 °F 39% 30.13 in 10.0 mi NNE 8.1 mph - N/A   Clear
4:35 PM 62.6 °F - 36.1 °F 37% 30.12 in 10.0 mi North 5.8 mph - N/A   Clear
4:55 PM 63.7 °F - 35.6 °F 35% 30.11 in 10.0 mi NNW 6.9 mph - N/A   Clear
5:15 PM 64.0 °F - 35.2 °F 34% 30.11 in 10.0 mi NNE 6.9 mph - N/A   Clear
5:35 PM 63.7 °F - 36.0 °F 36% 30.10 in 10.0 mi North 6.9 mph - N/A   Clear
5:55 PM 63.9 °F - 34.2 °F 33% 30.10 in 10.0 mi North 5.8 mph - N/A   Clear
6:15 PM 63.9 °F - 35.2 °F 35% 30.10 in 10.0 mi NE 9.2 mph - N/A   Clear
6:35 PM 63.5 °F - 34.0 °F 33% 30.10 in 10.0 mi North 6.9 mph - N/A   Clear
6:55 PM 63.0 °F - 35.4 °F 36% 30.10 in 10.0 mi ENE 10.4 mph - N/A   Clear
7:15 PM 62.4 °F - 34.5 °F 35% 30.10 in 10.0 mi North 5.8 mph - N/A   Clear
7:35 PM 61.7 °F - 34.9 °F 37% 30.10 in 10.0 mi NNE 4.6 mph - N/A   Clear
7:55 PM 60.1 °F - 36.5 °F 41% 30.10 in 10.0 mi NE 4.6 mph - N/A   Clear
8:15 PM 57.7 °F - 37.4 °F 47% 30.10 in 10.0 mi NE 6.9 mph - N/A   Clear
8:35 PM 56.3 °F - 35.6 °F 46% 30.11 in 10.0 mi ENE 5.8 mph - N/A   Clear
8:55 PM 53.8 °F - 36.7 °F 52% 30.11 in 10.0 mi East 6.9 mph - N/A   Clear
9:35 PM 52.3 °F - 37.6 °F 57% 30.12 in 10.0 mi East 5.8 mph - N/A   Clear
9:55 PM 50.4 °F - 36.9 °F 60% 30.13 in 10.0 mi East 6.9 mph - N/A   Clear
10:15 PM 49.6 °F - 37.2 °F 62% 30.14 in 10.0 mi East 6.9 mph - N/A   Clear
10:35 PM 47.5 °F - 36.5 °F 66% 30.14 in 10.0 mi East 5.8 mph - N/A   Clear
10:55 PM 45.9 °F 42.3 °F 36.7 °F 70% 30.15 in 10.0 mi ESE 6.9 mph - N/A   Clear
11:15 PM 45.3 °F 42.3 °F 37.4 °F 74% 30.15 in 10.0 mi ESE 5.8 mph - N/A   Clear
11:35 PM 45.5 °F 41.8 °F 37.9 °F 75% 30.15 in 10.0 mi SE 6.9 mph - N/A   Clear
11:55 PM 45.0 °F 41.2 °F 38.3 °F 77% 30.14 in 10.0 mi SE 6.9 mph - N/A   Clear